Location: Exeidioux
(45.6312°N, 1.6819°E)
Time: 06:15:07
(UTC+00:00)

DMSP B5D2-2 - Pass Details

Date: 03 March 2021
Orbit: 789 x 807 km, 98.3° (Epoch: 10 April)

Event Time Altitude Azimuth Distance (km) Brightness Sun altitude
Rises 19:47:26 0° 10° (N) 3,310 7.3 -22.4°
Reaches altitude 10° 19:49:48 10° 8° (N) 2,374 6.6 -22.8°
Maximum altitude 19:54:58 63° 288° (WNW) 883 4.5 -23.7°
Drops below altitude 10° 20:00:05 10° 208° (SSW) 2,349 6.6 -24.5°
Sets 20:02:24 0° 205° (SSW) 3,272 7.4 -24.9°
